Torna al catalogo

FENGYUN 1C DEB

AttivoSSO
NORAD 31533·DEBRIS·🇨🇳 China

Lanciato May 10, 1999 da Taiyuan Satellite Launch Center

Loading…

Prossimi Passaggi (prossime 24 ore)

TLE

AggiornatoSource: Space-Track

Epoca: Sep 14, 2026, 23:34 UTC

1 31533U 99025BXY 26257.98210014  .00000476  00000-0  20625-3 0  9992
2 31533  98.9347 161.8570 0063874 268.7496  90.6366 14.28057716700654

Traccia FENGYUN 1C DEB in tempo reale con AllMySat

Download on the App Store